Change the Weather History Date:

Tuesday, April 16, 2013

  Actual Average Record
Temperature  
Mean Temperature 45 °F -  
Max Temperature 48 °F 64 °F 84 °F (2004)
Min Temperature 42 °F 45 °F 35 °F (1999)
Degree Days  
Heating Degree Days 20    
Moisture  
Dew Point 32 °F    
Average Humidity 59    
Maximum Humidity 71    
Minimum Humidity 52    
Precipitation  
Precipitation 0.00 in - - ()
Sea Level Pressure  
Sea Level Pressure 30.10 in    
Wind  
Wind Speed 12 mph (NE)    
Max Wind Speed 16 mph    
Max Gust Speed 23 mph    
Visibility 10 miles    
Events Rain    
Averages and records for this station are not official NWS values.
T = Trace of Precipitation, MM = Missing Value Source: NWS Daily Summary

Daily Weather History Graph

Daily Weather History Graph

Search for Another Location

Airport or City:

Trip Planner

Search our weather history database for the weather conditions in past years. The results will help you decide how hot, cold, wet, or windy it might be!

Date:

Astronomy

Apr. 16, 2013 Rise Set
Actual Time 6:39 AM CDT 7:57 PM CDT
Civil Twilight 6:12 AM CDT 8:24 PM CDT
Nautical Twilight 5:38 AM CDT 8:58 PM CDT
Astronomical Twilight 5:04 AM CDT 9:33 PM CDT
Moon 11:00 AM CDT (4/16) 12:53 AM CDT (4/16)
Length of Visible Light 14h 12m
Length of Day
13h 17m
Waxing Crescent, 33% of the Moon is Illuminated
Apr 16
Waxing Crescent
Apr 18
First Quarter
Apr 25
Full
May 2
Last Quarter
May 9
New

Hourly Weather History & Observations

Time (CDT) Temp. Windchill Dew Point Humidity Pressure Visibility Wind Dir Wind Speed Gust Speed Precip Events Conditions
12:54 AM 44.1 °F 39.5 °F 30.0 °F 58% 30.04 in 10.0 mi NE 8.1 mph - N/A   Overcast
1:54 AM 43.0 °F 37.2 °F 30.9 °F 62% 30.03 in 10.0 mi NE 10.4 mph - N/A   Clear
2:54 AM 44.1 °F 38.1 °F 30.9 °F 60% 30.03 in 10.0 mi NE 11.5 mph - N/A   Overcast
3:54 AM 44.1 °F 38.1 °F 30.9 °F 60% 30.05 in 10.0 mi NE 11.5 mph - N/A   Overcast
4:54 AM 44.1 °F 37.4 °F 32.0 °F 63% 30.07 in 10.0 mi NE 13.8 mph - N/A   Overcast
5:54 AM 43.0 °F 37.2 °F 34.0 °F 71% 30.10 in 10.0 mi NNE 10.4 mph - 0.00 in Rain Light Rain
6:54 AM 42.8 °F 37.0 °F 33.8 °F 70% 30.09 in 10.0 mi ENE 10.4 mph - N/A   Overcast
7:54 AM 43.0 °F 35.4 °F 33.1 °F 68% 30.13 in 10.0 mi NNE 16.1 mph 19.6 mph 0.00 in   Overcast
8:54 AM 42.1 °F 34.9 °F 32.0 °F 67% 30.14 in 10.0 mi NE 13.8 mph - N/A   Overcast
9:54 AM 43.0 °F 35.7 °F 32.0 °F 65% 30.14 in 10.0 mi NE 15.0 mph - N/A   Overcast
10:54 AM 43.0 °F 36.4 °F 30.9 °F 62% 30.17 in 10.0 mi NE 12.7 mph - N/A   Overcast
11:54 AM 45.0 °F 38.9 °F 32.0 °F 60% 30.16 in 10.0 mi NE 12.7 mph - 0.00 in   Overcast
12:54 PM 46.0 °F 40.6 °F 30.0 °F 54% 30.14 in 10.0 mi ENE 11.5 mph - N/A   Overcast
1:54 PM 46.9 °F - 30.0 °F 52% 30.12 in 10.0 mi NE 12.7 mph - N/A   Overcast
2:54 PM 48.0 °F - 30.9 °F 52% 30.11 in 10.0 mi NE 11.5 mph - N/A   Overcast
3:54 PM 48.0 °F - 30.9 °F 52% 30.11 in 10.0 mi NE 15.0 mph - N/A   Overcast
4:54 PM 48.9 °F - 33.1 °F 54% 30.09 in 10.0 mi ENE 15.0 mph - N/A   Overcast
5:54 PM 48.0 °F - 32.0 °F 54% 30.10 in 10.0 mi ENE 12.7 mph - N/A   Overcast
6:54 PM 48.0 °F - 32.0 °F 54% 30.09 in 10.0 mi ENE 15.0 mph - N/A   Overcast
7:03 PM 48.2 °F - 32.0 °F 54% 30.08 in 10.0 mi ENE 16.1 mph - N/A   Overcast
7:54 PM 48.0 °F - 33.1 °F 56% 30.09 in 10.0 mi East 13.8 mph - N/A   Overcast
8:54 PM 46.9 °F - 33.1 °F 59% 30.11 in 10.0 mi ENE 12.7 mph 19.6 mph N/A   Overcast
9:54 PM 46.9 °F - 33.1 °F 59% 30.11 in 10.0 mi East 16.1 mph 23.0 mph N/A   Overcast
10:54 PM 46.9 °F - 33.1 °F 59% 30.09 in 10.0 mi East 12.7 mph 23.0 mph N/A   Overcast
11:54 PM 46.9 °F - 34.0 °F 61% 30.08 in 10.0 mi East 10.4 mph 19.6 mph N/A   Overcast